AAL73 KLAX-YSSY

Flight info

Callsign AAL73
Flight time N/A
Altitude 28000
Route SUMMR2 FICKY B581 BALKS/N0496F300 B581 WOSLU/N0493F320 B581 BONLO/N0483F340 B581 NN A579 UPSAD DCT GOOMA H258 RIKNI N774 MARLN
Aircraft B77W/H-SDE1E2E3FGHIJ2J3J4J5M1RWXY/LB1D1

Departure

Time 2026-04-20 05:47
Airport Los Angeles International Airport (KLAX)

Arrival

Time N/A
Airport Sydney Kingsford Smith International Airport (YSSY)
Time Latitude Longitude Altitude Speed Heading
2026-04-20 04:59 33.94162 -118.40762 138 ft 0 kts 83°
2026-04-20 05:29 33.94162 -118.40763 138 ft 0 kts 83°
2026-04-20 05:30 33.94161 -118.40779 138 ft 2 kts 83°
2026-04-20 05:30 33.94159 -118.40797 138 ft 2 kts 84°
2026-04-20 05:30 33.94159 -118.40816 137 ft 2 kts 100°
2026-04-20 05:31 33.94163 -118.40833 137 ft 2 kts 115°
2026-04-20 05:31 33.94170 -118.40848 137 ft 2 kts 127°
2026-04-20 05:31 33.94180 -118.40860 137 ft 1 kts 140°
2026-04-20 05:31 33.94192 -118.40870 138 ft 2 kts 153°
2026-04-20 05:32 33.94197 -118.40872 138 ft 0 kts 157°
2026-04-20 05:34 33.94008 -118.40816 138 ft 13 kts 177°
2026-04-20 05:35 33.93984 -118.40816 138 ft 0 kts 178°
2026-04-20 05:35 33.93983 -118.40815 138 ft 0 kts 178°
2026-04-20 05:35 33.93976 -118.40815 138 ft 2 kts 178°
2026-04-20 05:36 33.93951 -118.40813 139 ft 4 kts 176°
2026-04-20 05:36 33.93910 -118.40803 139 ft 6 kts 157°
2026-04-20 05:36 33.93873 -118.40766 141 ft 7 kts 137°
2026-04-20 05:36 33.93825 -118.40752 142 ft 7 kts 210°
2026-04-20 05:37 33.93796 -118.40817 142 ft 10 kts 263°
2026-04-20 05:37 33.93786 -118.40912 142 ft 12 kts 263°
2026-04-20 05:37 33.93775 -118.41029 141 ft 15 kts 264°
2026-04-20 05:37 33.93791 -118.41141 140 ft 14 kts 318°
2026-04-20 05:38 33.93890 -118.41167 138 ft 16 kts 354°
2026-04-20 05:38 33.94015 -118.41184 135 ft 19 kts 353°
2026-04-20 05:38 33.94153 -118.41206 135 ft 20 kts 353°
2026-04-20 05:38 33.94300 -118.41228 135 ft 22 kts 353°
2026-04-20 05:39 33.94456 -118.41253 135 ft 22 kts 353°
2026-04-20 05:39 33.94614 -118.41273 135 ft 22 kts 354°
2026-04-20 05:39 33.94743 -118.41290 136 ft 16 kts
2026-04-20 05:39 33.94803 -118.41185 136 ft 17 kts 84°
2026-04-20 05:40 33.94819 -118.41041 136 ft 17 kts 82°
2026-04-20 05:40 33.94836 -118.40888 136 ft 18 kts 84°
2026-04-20 05:40 33.94850 -118.40727 134 ft 19 kts 83°
2026-04-20 05:40 33.94868 -118.40556 133 ft 18 kts 83°
2026-04-20 05:41 33.94883 -118.40429 132 ft 10 kts 83°
2026-04-20 05:41 33.94884 -118.40415 131 ft 0 kts 83°
2026-04-20 05:41 33.94885 -118.40405 131 ft 2 kts 83°
2026-04-20 05:41 33.94889 -118.40369 131 ft 5 kts 83°
2026-04-20 05:42 33.94896 -118.40308 130 ft 9 kts 83°
2026-04-20 05:42 33.94900 -118.40260 129 ft 0 kts 83°
2026-04-20 05:42 33.94901 -118.40249 129 ft 2 kts 83°
2026-04-20 05:42 33.94905 -118.40215 129 ft 5 kts 84°
2026-04-20 05:43 33.94910 -118.40158 129 ft 8 kts 84°
2026-04-20 05:43 33.94916 -118.40105 129 ft 7 kts 80°
2026-04-20 05:43 33.94926 -118.40082 128 ft 0 kts 38°
2026-04-20 05:43 33.94933 -118.40076 128 ft 3 kts 30°
2026-04-20 05:44 33.94973 -118.40062 126 ft 8 kts
2026-04-20 05:44 33.95026 -118.40103 126 ft 9 kts 277°
2026-04-20 05:44 33.95022 -118.40134 126 ft 0 kts 263°
2026-04-20 05:44 33.95022 -118.40139 126 ft 1 kts 262°
2026-04-20 05:45 33.95021 -118.40144 126 ft 0 kts 262°
2026-04-20 05:46 33.95021 -118.40146 126 ft 2 kts 262°
2026-04-20 05:46 33.94992 -118.40425 130 ft 69 kts 264°
2026-04-20 05:46 33.94908 -118.41274 136 ft 136 kts 263°
2026-04-20 05:46 33.94764 -118.42695 127 ft 198 kts 263°
2026-04-20 05:47 33.94575 -118.44516 327 ft 237 kts 263°
2026-04-20 05:47 33.94388 -118.46526 1110 ft 245 kts 266°
2026-04-20 05:47 33.94308 -118.48460 2236 ft 229 kts 268°
2026-04-20 05:47 33.94248 -118.50437 2510 ft 247 kts 268°
2026-04-20 05:48 33.94123 -118.52598 2822 ft 264 kts 264°
2026-04-20 05:48 33.93930 -118.54821 3393 ft 270 kts 264°
2026-04-20 05:48 33.93743 -118.57077 4041 ft 273 kts 265°
2026-04-20 05:48 33.93563 -118.59338 4675 ft 276 kts 265°
2026-04-20 05:49 33.93380 -118.61672 5312 ft 278 kts 265°
2026-04-20 05:49 33.93197 -118.64004 5934 ft 281 kts 265°
2026-04-20 05:49 33.93015 -118.66338 6541 ft 283 kts 264°
2026-04-20 05:49 33.92829 -118.68740 7151 ft 286 kts 264°
2026-04-20 05:50 33.92645 -118.71128 7742 ft 288 kts 264°
2026-04-20 05:50 33.92458 -118.73531 8322 ft 291 kts 264°
2026-04-20 05:50 33.92267 -118.75979 8897 ft 293 kts 264°
2026-04-20 05:50 33.92075 -118.78423 9456 ft 296 kts 264°
2026-04-20 05:51 33.91881 -118.80900 10008 ft 298 kts 264°
2026-04-20 05:51 33.91713 -118.83424 10323 ft 310 kts 270°
2026-04-20 05:51 33.91766 -118.86058 10514 ft 325 kts 272°
2026-04-20 05:51 33.91857 -118.88877 10733 ft 340 kts 272°
2026-04-20 05:52 33.91948 -118.91781 10967 ft 355 kts 272°
2026-04-20 05:52 33.92038 -118.94791 11253 ft 367 kts 272°
2026-04-20 05:52 33.92128 -118.97907 11767 ft 373 kts 271°
2026-04-20 05:52 33.91973 -119.01041 12341 ft 376 kts 261°
2026-04-20 05:53 33.91321 -119.04084 12901 ft 379 kts 249°
2026-04-20 05:53 33.90300 -119.07037 13481 ft 382 kts 246°
2026-04-20 05:53 33.89233 -119.09971 14056 ft 385 kts 246°
2026-04-20 05:53 33.88158 -119.12918 14611 ft 388 kts 246°
2026-04-20 05:54 33.87058 -119.15938 15164 ft 392 kts 246°
2026-04-20 05:54 33.85969 -119.18922 15695 ft 395 kts 246°
2026-04-20 05:54 33.84862 -119.21957 16224 ft 398 kts 246°
2026-04-20 05:54 33.83743 -119.25022 16746 ft 401 kts 246°
2026-04-20 05:55 33.82619 -119.28099 17257 ft 404 kts 246°
2026-04-20 05:55 33.81463 -119.31206 17754 ft 407 kts 243°
2026-04-20 05:55 33.79969 -119.34140 18223 ft 410 kts 233°
2026-04-20 05:55 33.78055 -119.36709 18687 ft 413 kts 223°
2026-04-20 05:56 33.75853 -119.38902 19160 ft 416 kts 218°
2026-04-20 05:56 33.73555 -119.41063 19646 ft 418 kts 218°
2026-04-20 05:56 33.71231 -119.43241 20112 ft 421 kts 218°
2026-04-20 05:56 33.68927 -119.45399 20557 ft 424 kts 218°
2026-04-20 05:57 33.66591 -119.47586 20997 ft 427 kts 218°
2026-04-20 05:57 33.64230 -119.49796 21429 ft 430 kts 218°
2026-04-20 05:57 33.61864 -119.52010 21830 ft 433 kts 218°
2026-04-20 05:57 33.59482 -119.54237 21945 ft 444 kts 218°
2026-04-20 05:58 33.57049 -119.56509 22099 ft 452 kts 218°
2026-04-20 05:58 33.54636 -119.58761 22459 ft 456 kts 218°
2026-04-20 05:58 33.52108 -119.61120 22902 ft 458 kts 218°
2026-04-20 05:58 33.49565 -119.63491 23310 ft 460 kts 218°
2026-04-20 05:59 33.47027 -119.65855 23685 ft 463 kts 218°
2026-04-20 05:59 33.44476 -119.68230 24052 ft 466 kts 218°
2026-04-20 05:59 33.41923 -119.70604 24414 ft 468 kts 218°
2026-04-20 05:59 33.39321 -119.73023 24772 ft 471 kts 218°
2026-04-20 06:00 33.36745 -119.75415 25116 ft 473 kts 218°
2026-04-20 06:00 33.34134 -119.77838 25456 ft 475 kts 218°
2026-04-20 06:00 33.31507 -119.80274 25794 ft 478 kts 218°
2026-04-20 06:00 33.28873 -119.82715 26128 ft 480 kts 218°
2026-04-20 06:01 33.26261 -119.85133 26456 ft 483 kts 218°
2026-04-20 06:01 33.23587 -119.87605 26789 ft 485 kts 218°
2026-04-20 06:01 33.20918 -119.90073 27116 ft 487 kts 218°
2026-04-20 06:01 33.18242 -119.92545 27514 ft 487 kts 218°
2026-04-20 06:02 33.15561 -119.95019 27931 ft 487 kts 218°
2026-04-20 06:02 33.12867 -119.97504 27981 ft 488 kts 218°
2026-04-20 06:02 33.10187 -119.99972 27986 ft 485 kts 218°
2026-04-20 06:02 33.07523 -120.02425 27987 ft 483 kts 218°
2026-04-20 06:03 33.04884 -120.04853 27987 ft 484 kts 218°
2026-04-20 06:03 33.02214 -120.07307 27987 ft 484 kts 218°
2026-04-20 06:03 32.99533 -120.09770 27987 ft 484 kts 218°
2026-04-20 06:03 32.96890 -120.12196 27987 ft 484 kts 218°
2026-04-20 06:04 32.94219 -120.14645 27987 ft 484 kts 218°
2026-04-20 06:04 32.91527 -120.17113 27987 ft 484 kts 218°
2026-04-20 06:04 32.88850 -120.19563 27987 ft 484 kts 218°
2026-04-20 06:04 32.86178 -120.22008 27987 ft 484 kts 218°
2026-04-20 06:05 32.83507 -120.24450 27987 ft 484 kts 218°
2026-04-20 06:05 32.80859 -120.26869 27987 ft 484 kts 218°
2026-04-20 06:05 32.78182 -120.29314 27987 ft 484 kts 218°
2026-04-20 06:05 32.75503 -120.31757 27987 ft 484 kts 218°
2026-04-20 06:06 32.72824 -120.34198 27987 ft 484 kts 218°
2026-04-20 06:06 32.70162 -120.36623 27987 ft 484 kts 218°
2026-04-20 06:06 32.67501 -120.39044 27987 ft 484 kts 218°
2026-04-20 06:06 32.64830 -120.41473 27987 ft 484 kts 218°
2026-04-20 06:07 32.62131 -120.43925 27987 ft 484 kts 218°
2026-04-20 06:07 32.59456 -120.46353 27987 ft 484 kts 218°
2026-04-20 06:07 32.56765 -120.48795 27987 ft 484 kts 218°
2026-04-20 06:07 32.54114 -120.51202 27987 ft 483 kts 218°
2026-04-20 06:08 32.51477 -120.53593 27987 ft 476 kts 218°
2026-04-20 06:08 32.48819 -120.56001 27989 ft 483 kts 218°
2026-04-20 06:08 32.46144 -120.58422 27987 ft 486 kts 218°
2026-04-20 06:08 32.43444 -120.60865 27987 ft 485 kts 218°
2026-04-20 06:09 32.40760 -120.63291 27987 ft 484 kts 218°
2026-04-20 06:09 32.38098 -120.65696 27987 ft 484 kts 217°
2026-04-20 06:09 32.35430 -120.68104 27987 ft 484 kts 217°
2026-04-20 06:09 32.32756 -120.70515 27987 ft 484 kts 217°
2026-04-20 06:10 32.30054 -120.72950 27987 ft 484 kts 217°
2026-04-20 06:10 32.27408 -120.75333 27987 ft 484 kts 217°
2026-04-20 06:10 32.24715 -120.77756 27987 ft 484 kts 217°
2026-04-20 06:10 32.22037 -120.80164 27987 ft 484 kts 217°
2026-04-20 06:11 32.19352 -120.82576 27987 ft 484 kts 217°
2026-04-20 06:11 32.16640 -120.85010 28046 ft 490 kts 217°
2026-04-20 06:11 32.13935 -120.87437 28449 ft 489 kts 217°
2026-04-20 06:11 32.11227 -120.89865 29097 ft 483 kts 217°
2026-04-20 06:12 32.08565 -120.92248 29686 ft 479 kts 217°
2026-04-20 06:12 32.05918 -120.94617 30113 ft 478 kts 217°
2026-04-20 06:12 32.03233 -120.97019 30455 ft 479 kts 217°
2026-04-20 06:12 32.00537 -120.99429 30807 ft 479 kts 217°
2026-04-20 06:13 31.97889 -121.01793 31183 ft 478 kts 217°
2026-04-20 06:13 31.95213 -121.04181 31561 ft 477 kts 217°
2026-04-20 06:13 31.92557 -121.06550 31906 ft 476 kts 217°
2026-04-20 06:13 31.89906 -121.08911 31978 ft 479 kts 217°
2026-04-20 06:14 31.84613 -121.13622 31987 ft 476 kts 217°
2026-04-20 06:14 31.79333 -121.18314 31987 ft 476 kts 217°
2026-04-20 06:15 31.74058 -121.22996 31987 ft 476 kts 217°
2026-04-20 06:15 31.68774 -121.27677 31987 ft 476 kts 217°
2026-04-20 06:16 31.63492 -121.32352 31987 ft 476 kts 217°
2026-04-20 06:16 31.58242 -121.37035 31981 ft 476 kts 221°
2026-04-20 06:17 31.53896 -121.42886 31986 ft 476 kts 238°
2026-04-20 06:17 31.50528 -121.49533 31987 ft 476 kts 240°
2026-04-20 06:18 31.47173 -121.56219 31987 ft 476 kts 240°
2026-04-20 06:18 31.43805 -121.62907 31987 ft 476 kts 240°
2026-04-20 06:19 31.40443 -121.69566 31987 ft 476 kts 239°
2026-04-20 06:19 31.37079 -121.76215 31987 ft 476 kts 239°
2026-04-20 06:20 31.33707 -121.82863 31987 ft 476 kts 239°
2026-04-20 06:20 31.30328 -121.89515 31987 ft 476 kts 239°
2026-04-20 06:21 31.26931 -121.96189 31987 ft 476 kts 239°
2026-04-20 06:21 31.23527 -122.02864 31987 ft 476 kts 239°
2026-04-20 06:22 31.20131 -122.09513 31987 ft 476 kts 239°
2026-04-20 06:22 31.16756 -122.16109 31987 ft 476 kts 239°
2026-04-20 06:23 31.13346 -122.22762 31987 ft 476 kts 239°
2026-04-20 06:23 31.09952 -122.29374 31987 ft 476 kts 239°
2026-04-20 06:24 31.06561 -122.35967 31987 ft 476 kts 239°
2026-04-20 06:24 31.03131 -122.42625 31987 ft 476 kts 239°
2026-04-20 06:25 30.99721 -122.49232 31987 ft 476 kts 239°
2026-04-20 06:25 30.96302 -122.55846 31987 ft 476 kts 239°
2026-04-20 06:26 30.92890 -122.62436 31987 ft 476 kts 239°
2026-04-20 06:26 30.89466 -122.69035 31987 ft 476 kts 239°
2026-04-20 06:27 30.86056 -122.75600 31987 ft 476 kts 239°
2026-04-20 06:27 30.82645 -122.82154 31987 ft 476 kts 239°
2026-04-20 06:28 30.79207 -122.88749 31987 ft 476 kts 239°
2026-04-20 06:28 30.75785 -122.95300 31987 ft 476 kts 239°
2026-04-20 06:29 30.72327 -123.01913 31987 ft 476 kts 239°
2026-04-20 06:29 30.68893 -123.08466 31987 ft 476 kts 239°
2026-04-20 06:30 30.65430 -123.15046 31987 ft 476 kts 238°
2026-04-20 06:30 30.61942 -123.21587 31987 ft 476 kts 238°
2026-04-20 06:31 30.58478 -123.28072 31987 ft 476 kts 238°
2026-04-20 06:31 30.54975 -123.34624 31987 ft 476 kts 238°
2026-04-20 06:32 30.51491 -123.41130 31987 ft 476 kts 238°
2026-04-20 06:32 30.47982 -123.47672 31987 ft 476 kts 238°
2026-04-20 06:33 30.44479 -123.54192 31987 ft 476 kts 238°
2026-04-20 06:33 30.40966 -123.60722 31987 ft 476 kts 238°
2026-04-20 06:34 30.37457 -123.67232 31987 ft 476 kts 238°
2026-04-20 06:35 30.32206 -123.76956 31987 ft 476 kts 238°
2026-04-20 06:35 30.28696 -123.83442 31987 ft 476 kts 238°
2026-04-20 06:36 30.25189 -123.89911 31987 ft 476 kts 238°
2026-04-20 06:36 30.21667 -123.96399 31987 ft 476 kts 238°
2026-04-20 06:37 30.18146 -124.02874 31987 ft 476 kts 238°
2026-04-20 06:37 30.14617 -124.09353 31987 ft 476 kts 238°
2026-04-20 06:38 30.11090 -124.15817 31987 ft 476 kts 238°
2026-04-20 06:38 30.07550 -124.22296 31987 ft 476 kts 238°
2026-04-20 06:39 30.04023 -124.28741 31987 ft 476 kts 238°
2026-04-20 06:39 30.00491 -124.35183 31987 ft 476 kts 238°
2026-04-20 06:40 29.96926 -124.41676 31987 ft 476 kts 238°
2026-04-20 06:40 29.93394 -124.48099 31987 ft 476 kts 238°
2026-04-20 06:41 29.89846 -124.54539 31987 ft 476 kts 238°
2026-04-20 06:41 29.86298 -124.60971 31987 ft 476 kts 238°
2026-04-20 06:42 29.82725 -124.67438 31987 ft 476 kts 237°
2026-04-20 06:42 29.79161 -124.73876 31987 ft 476 kts 237°
2026-04-20 06:43 29.75609 -124.80285 31987 ft 476 kts 237°
2026-04-20 06:43 29.72066 -124.86665 31987 ft 476 kts 237°
2026-04-20 06:44 29.68502 -124.93076 31987 ft 476 kts 237°
2026-04-20 06:44 29.64911 -124.99522 31987 ft 476 kts 237°
2026-04-20 06:45 29.61337 -125.05930 31987 ft 476 kts 237°
2026-04-20 06:45 29.57746 -125.12357 31987 ft 476 kts 237°
2026-04-20 06:46 29.54189 -125.18712 31987 ft 476 kts 237°
2026-04-20 06:46 29.50596 -125.25122 31987 ft 476 kts 237°
2026-04-20 06:47 29.47016 -125.31500 31987 ft 476 kts 237°
2026-04-20 06:47 29.43410 -125.37913 31987 ft 476 kts 237°
2026-04-20 06:48 29.39821 -125.44288 31987 ft 476 kts 237°
2026-04-20 06:48 29.36230 -125.50655 31987 ft 476 kts 237°
2026-04-20 06:49 29.32631 -125.57026 31987 ft 476 kts 237°
2026-04-20 06:49 29.29036 -125.63382 31987 ft 476 kts 237°
2026-04-20 06:50 29.25426 -125.69752 31987 ft 476 kts 237°
2026-04-20 06:50 29.21824 -125.76099 31987 ft 476 kts 237°
2026-04-20 06:51 29.18209 -125.82461 31987 ft 476 kts 237°
2026-04-20 06:51 29.14605 -125.88792 31987 ft 476 kts 237°
2026-04-20 06:52 29.11000 -125.95116 31987 ft 476 kts 237°
2026-04-20 06:52 29.07380 -126.01456 31987 ft 476 kts 237°
2026-04-20 06:53 29.03754 -126.07797 31987 ft 476 kts 237°
2026-04-20 06:53 29.00126 -126.14133 31987 ft 476 kts 237°
2026-04-20 06:54 28.96526 -126.20409 31987 ft 476 kts 237°
2026-04-20 06:54 28.92893 -126.26733 31987 ft 476 kts 237°
2026-04-20 06:55 28.89236 -126.33089 31987 ft 476 kts 237°
2026-04-20 06:55 28.85605 -126.39391 31987 ft 476 kts 237°
2026-04-20 06:56 28.81950 -126.45726 31987 ft 476 kts 237°
2026-04-20 06:56 28.78334 -126.51983 31987 ft 476 kts 237°
2026-04-20 06:57 28.74676 -126.58304 31987 ft 476 kts 237°
2026-04-20 06:57 28.71043 -126.64571 31987 ft 476 kts 237°
2026-04-20 06:58 28.67371 -126.70895 31987 ft 476 kts 236°
2026-04-20 06:58 28.63716 -126.77183 31987 ft 476 kts 236°
2026-04-20 06:59 28.60066 -126.83452 31987 ft 476 kts 236°
2026-04-20 06:59 28.56407 -126.89726 31987 ft 476 kts 236°
2026-04-20 07:00 28.52759 -126.95973 31987 ft 476 kts 236°
2026-04-20 07:00 28.49089 -127.02248 31987 ft 476 kts 236°
2026-04-20 07:01 28.45444 -127.08472 31987 ft 476 kts 236°
2026-04-20 07:01 28.41760 -127.14751 31987 ft 476 kts 236°
2026-04-20 07:02 28.38095 -127.20990 31987 ft 476 kts 236°
2026-04-20 07:02 28.34432 -127.27218 31987 ft 476 kts 236°
2026-04-20 07:03 28.30758 -127.33453 31987 ft 476 kts 236°
2026-04-20 07:03 28.27069 -127.39706 31987 ft 476 kts 236°
2026-04-20 07:04 28.23396 -127.45922 31987 ft 476 kts 236°
2026-04-20 07:04 28.19684 -127.52195 31987 ft 476 kts 236°
2026-04-20 07:05 28.16023 -127.58373 31987 ft 476 kts 236°
2026-04-20 07:05 28.12332 -127.64592 31987 ft 476 kts 236°
2026-04-20 07:06 28.08620 -127.70838 31987 ft 476 kts 236°
2026-04-20 07:06 28.04903 -127.77084 31987 ft 476 kts 236°
2026-04-20 07:07 28.01214 -127.83272 31987 ft 476 kts 236°
2026-04-20 07:07 27.97501 -127.89492 31987 ft 476 kts 236°
2026-04-20 07:08 27.93807 -127.95671 31987 ft 476 kts 236°
2026-04-20 07:08 27.90087 -128.01886 31987 ft 476 kts 236°
2026-04-20 07:09 27.86392 -128.08049 31987 ft 476 kts 236°
2026-04-20 07:09 27.82667 -128.14255 31987 ft 476 kts 236°
2026-04-20 07:10 27.78946 -128.20444 31987 ft 476 kts 236°
2026-04-20 07:10 27.75223 -128.26627 31987 ft 476 kts 236°
2026-04-20 07:11 27.71485 -128.32828 31987 ft 476 kts 236°
2026-04-20 07:11 27.67761 -128.38995 31987 ft 476 kts 236°
2026-04-20 07:12 27.64014 -128.45193 31987 ft 476 kts 236°
2026-04-20 07:12 27.60285 -128.51352 31987 ft 476 kts 236°
2026-04-20 07:13 27.56543 -128.57523 31987 ft 476 kts 236°
2026-04-20 07:13 27.52790 -128.63702 31987 ft 476 kts 236°
2026-04-20 07:14 27.49037 -128.69876 31987 ft 476 kts 236°
2026-04-20 07:14 27.45292 -128.76025 31987 ft 476 kts 236°
2026-04-20 07:15 27.41536 -128.82185 31987 ft 476 kts 236°
2026-04-20 07:15 27.37785 -128.88329 31987 ft 476 kts 236°
2026-04-20 07:16 27.34042 -128.94449 31987 ft 476 kts 236°
2026-04-20 07:16 27.30283 -129.00589 31987 ft 476 kts 236°
2026-04-20 07:17 27.26523 -129.06720 31987 ft 476 kts 236°
2026-04-20 07:17 27.22744 -129.12875 31987 ft 476 kts 236°
2026-04-20 07:18 27.18955 -129.19038 31987 ft 476 kts 236°
2026-04-20 07:18 27.15185 -129.25160 31987 ft 476 kts 236°
2026-04-20 07:19 27.11428 -129.31253 31987 ft 476 kts 236°
2026-04-20 07:19 27.07633 -129.37401 31987 ft 476 kts 236°
2026-04-20 07:20 27.03882 -129.43468 31987 ft 476 kts 236°
2026-04-20 07:20 27.00104 -129.49570 31987 ft 476 kts 236°
2026-04-20 07:21 26.96303 -129.55701 31987 ft 476 kts 236°
2026-04-20 07:21 26.92522 -129.61791 31987 ft 476 kts 236°
2026-04-20 07:22 26.88740 -129.67874 31987 ft 476 kts 235°
2026-04-20 07:22 26.84928 -129.73997 31987 ft 476 kts 235°
2026-04-20 07:23 26.81140 -129.80075 31987 ft 476 kts 235°
2026-04-20 07:23 26.77335 -129.86171 31987 ft 476 kts 235°
2026-04-20 07:24 26.73543 -129.92238 31987 ft 476 kts 235°
2026-04-20 07:24 26.69716 -129.98352 31987 ft 476 kts 235°
2026-04-20 07:25 26.65898 -130.04443 31987 ft 476 kts 235°
2026-04-20 07:25 26.62091 -130.10510 31987 ft 476 kts 235°
2026-04-20 07:26 26.58278 -130.16577 31987 ft 476 kts 235°
2026-04-20 07:26 26.54471 -130.22627 31987 ft 476 kts 235°
2026-04-20 07:27 26.50655 -130.28683 31987 ft 476 kts 235°
2026-04-20 07:27 26.46828 -130.34749 31987 ft 476 kts 235°
2026-04-20 07:28 26.42982 -130.40836 31987 ft 476 kts 235°
2026-04-20 07:28 26.39148 -130.46896 31987 ft 476 kts 235°
2026-04-20 07:29 26.35335 -130.52916 31987 ft 476 kts 235°
2026-04-20 07:29 26.31497 -130.58966 31987 ft 476 kts 235°
2026-04-20 07:30 26.27681 -130.64973 31987 ft 476 kts 235°
2026-04-20 07:30 26.23845 -130.71005 31987 ft 476 kts 234°
2026-04-20 07:31 26.20011 -130.77026 31987 ft 476 kts 234°
2026-04-20 07:31 26.16174 -130.83043 31987 ft 476 kts 234°
2026-04-20 07:32 26.12338 -130.89050 31987 ft 476 kts 234°
2026-04-20 07:32 26.08497 -130.95058 31987 ft 476 kts 234°
2026-04-20 07:33 26.04680 -131.01021 31987 ft 476 kts 234°
2026-04-20 07:33 26.00825 -131.07034 31987 ft 476 kts 234°
2026-04-20 07:34 25.96968 -131.13043 31987 ft 476 kts 234°
2026-04-20 07:34 25.93091 -131.19078 31987 ft 476 kts 234°
2026-04-20 07:35 25.87328 -131.28029 31987 ft 476 kts 234°
2026-04-20 07:35 25.83454 -131.34039 31987 ft 476 kts 234°
2026-04-20 07:36 25.79613 -131.39989 31987 ft 476 kts 234°
2026-04-20 07:36 25.75733 -131.45991 31987 ft 476 kts 234°
2026-04-20 07:37 25.71873 -131.51955 31987 ft 476 kts 234°
2026-04-20 07:37 25.67985 -131.57953 31987 ft 476 kts 234°
2026-04-20 07:38 25.64088 -131.63960 31987 ft 476 kts 234°
2026-04-20 07:38 25.60211 -131.69926 31987 ft 476 kts 234°
2026-04-20 07:39 25.56353 -131.75858 31987 ft 476 kts 234°
2026-04-20 07:39 25.52466 -131.81824 31987 ft 476 kts 234°
2026-04-20 07:40 25.48593 -131.87762 31987 ft 476 kts 234°
2026-04-20 07:40 25.44707 -131.93713 31987 ft 476 kts 234°
2026-04-20 07:41 25.40819 -131.99660 31987 ft 476 kts 234°
2026-04-20 07:41 25.36936 -132.05591 31987 ft 476 kts 234°
2026-04-20 07:42 25.33049 -132.11520 31987 ft 476 kts 234°
2026-04-20 07:42 25.29150 -132.17461 31987 ft 476 kts 234°
2026-04-20 07:43 25.25261 -132.23383 31987 ft 476 kts 234°
2026-04-20 07:43 25.21375 -132.29294 31987 ft 476 kts 234°
2026-04-20 07:44 25.17437 -132.35275 31987 ft 476 kts 234°
2026-04-20 07:44 25.13523 -132.41214 31987 ft 476 kts 234°
2026-04-20 07:45 25.09627 -132.47118 31987 ft 476 kts 234°
2026-04-20 07:45 25.05713 -132.53041 31987 ft 476 kts 234°
2026-04-20 07:46 25.01831 -132.58910 31987 ft 476 kts 234°
2026-04-20 07:46 24.97898 -132.64847 31987 ft 476 kts 234°
2026-04-20 07:47 24.93982 -132.70752 31987 ft 476 kts 234°
2026-04-20 07:47 24.90062 -132.76656 31987 ft 476 kts 234°
2026-04-20 07:48 24.86130 -132.82568 31987 ft 476 kts 234°
2026-04-20 07:48 24.82233 -132.88423 31987 ft 476 kts 234°
2026-04-20 07:49 24.78295 -132.94333 31987 ft 476 kts 234°
2026-04-20 07:49 24.74386 -133.00191 31987 ft 476 kts 234°
2026-04-20 07:50 24.70458 -133.06070 31987 ft 476 kts 234°
2026-04-20 07:50 24.66531 -133.11942 31987 ft 476 kts 234°
2026-04-20 07:51 24.62592 -133.17822 31987 ft 476 kts 234°
2026-04-20 07:51 24.58664 -133.23680 31987 ft 476 kts 234°
2026-04-20 07:52 24.54739 -133.29526 31987 ft 476 kts 234°
2026-04-20 07:52 24.50805 -133.35381 31987 ft 476 kts 234°
2026-04-20 07:53 24.46854 -133.41251 31987 ft 476 kts 234°
2026-04-20 07:53 24.42906 -133.47110 31987 ft 476 kts 234°
2026-04-20 07:54 24.38962 -133.52957 31987 ft 476 kts 234°
2026-04-20 07:54 24.35007 -133.58813 31987 ft 476 kts 234°
2026-04-20 07:55 24.31089 -133.64607 31987 ft 476 kts 234°
2026-04-20 07:55 24.27142 -133.70438 31987 ft 476 kts 233°
2026-04-20 07:56 24.23167 -133.76303 31987 ft 476 kts 233°
2026-04-20 07:56 24.19222 -133.82115 31987 ft 476 kts 233°